{"data":{"norad_id":60038,"intl_designator":"2024-112A","name":"STARLINK-11129 [DTC]","alt_names":[],"object_type":"PAYLOAD","status":"ACTIVE","operator":null,"country":"US","launch_date":"2024-06-08","launch_site_code":"AFWTR","launch_vehicle":null,"mission":null,"orbit_class":"UNKNOWN","rcs_meters":null,"size_class":null,"mass_kg":null,"dimensions":null,"purposes":["comms"],"wikipedia_slug":null,"has_3d_model":false,"image_url":null,"decayed_at":null,"tle_current":{"epoch":"2026-09-21T13:57:52.599456Z","epoch_age_seconds":84168,"freshness":"FRESH","line1":"1 60038U 24112A   26264.58185879 -.00001175  00000+0 -48433-5 0  9990","line2":"2 60038  53.1586  20.9195 0000909  44.2542 315.8548 15.69701715131744","mean_motion":15.69701715,"eccentricity":9.09e-5,"inclination_deg":53.1586,"raan_deg":20.9195,"arg_perigee_deg":44.2542,"mean_anomaly_deg":315.8548,"bstar":-4.8433e-6,"rev_number":13174,"period_min":91.737174409598,"perigee_km":359.13798505271,"apogee_km":360.36293299276,"semimajor_km":6737.8874590227,"source":"CELESTRAK","updated_at":"2026-09-22T09:00:49.141530Z"}}}